Home > Weather > Kalamazoo > Past weeks

Flag for USA Weather for the Past 2 Weeks in Kalamazoo, Michigan, USA

Now
45 °F

Light rain. Overcast.


Feels Like: 40 °F
Forecast: 45 / 58 °F
Wind: 10 mph from Northeast

Location: Kalamazoo / Battle Creek International Airport

Current Time: May 2, 2016 at 2:55:12 AM

Latest Report: May 2, 2016 at 1:53 AM


Visibility: 9 mi

Pressure: 30.00 "Hg

Humidity: 86%

Dew Point: 41 °F

Location of KalamazooLocation

Historic Weather in Kalamazoo — Graph

°F

Kalamazoo Temperature Yesterday

Maximum temperature yesterday: 52 °F (at 3:53 PM)
Minimum temperature yesterday: 47 °F (at 6:53 AM)
Average temperature yesterday: 49 °F

High & Low Weather Summary for the Past Weeks

 TemperatureHumidityPressure
High82 °F (Apr 18, 3:53 PM)93% (Apr 21, 9:53 PM)30.45 "Hg (Apr 21, 9:53 PM)
Low41 °F (Apr 23, 6:53 AM)14% (Apr 17, 3:53 PM)29.59 "Hg (Apr 25, 9:53 PM)
Average55 °F61%30.04 "Hg
* Reported Apr 17 12:53 AM — May 2 12:53 AM, Kalamazoo, Weather by CustomWeather, © 2016

Note: Actual official high and low records may vary slightly from our data, if they occured in-between our weather recording intervals... More about our weather records

Advertising

Kalamazoo Weather History for the Previous 24 Hours

Scroll right to see more
 ConditionsComfort  
Time TempWeatherWind HumidityBarometerVisibility
12:53 AM
Mon, May 2
46 °FLight rain. Fog.9 mph86%30.00 "Hg4 mi
11:53 PM
Sun, May 1
47 °FLight rain. Mostly cloudy.10 mph83%29.96 "Hg6 mi
10:53 PM47 °FLow clouds.12 mph86%29.96 "Hg9 mi
9:53 PM48 °FLight rain. Fog.10 mph86%29.98 "Hg10 mi
8:53 PM50 °FFog.10 mph83%30.00 "Hg5 mi
7:53 PM50 °FFog.7 mph86%29.98 "Hg6 mi
6:53 PM51 °FLow clouds.7 mph83%30.00 "Hg9 mi
5:53 PM52 °FLow clouds.8 mph80%30.01 "Hg10 mi
4:53 PM52 °FLow clouds.6 mph80%30.01 "Hg10 mi
3:53 PM52 °FLow clouds.5 mph80%30.01 "Hg10 mi
2:53 PM51 °FLow clouds.7 mph83%30.01 "Hg10 mi
1:53 PM51 °FLow clouds.6 mph83%30.01 "Hg10 mi
12:53 PM50 °FLow clouds.8 mph86%29.99 "Hg10 mi
11:53 AM50 °FFog.7 mph86%30.00 "Hg6 mi
10:53 AM48 °FLow clouds.7 mph89%29.99 "Hg7 mi
9:53 AM47 °FFog.6 mph90%30.00 "Hg4 mi
8:53 AM47 °FFog.5 mph90%29.96 "Hg2 mi
7:53 AM47 °FFog.5 mph93%29.95 "Hg1 mi
6:53 AM47 °FFog.5 mph90%29.95 "Hg3 mi
5:53 AM48 °FLow clouds.5 mph89%29.93 "Hg9 mi
4:53 AM48 °FLow clouds.5 mph89%29.92 "Hg7 mi
3:53 AM49 °FLow clouds.6 mph86%29.92 "Hg10 mi
2:53 AM49 °FLight rain. Fog.7 mph86%29.91 "Hg3 mi
Weather by CustomWeather, © 2016

See weather overviewHow to use our weather pages